Sign In / Sign Up
 
 
Guiding Lights Regatta. Leg 1. 19/02 - 25/02



Race Date (UTC) # I place II place III place Track
Race4892 2018-02-24 15:44:57 8 URU414 HARARI15 Dannato
Race4891 2018-02-24 15:43:47 5 Fabio Schoko ITA266
Race4890 2018-02-24 15:43:11 8 fair gorraz ...- - -...
Race4889 2018-02-24 15:42:39 8 GRE_9 Wally Bukkiii
Race4888 2018-02-24 15:40:29 7 Bilitote Delfina kong
Race4887 2018-02-24 15:38:52 8 sharma470IND-1 Dannato D-one ITA 102
Race4886 2018-02-24 15:37:51 2 Fabio ITA266
Race4885 2018-02-24 15:37:04 8 fair JeanPipit ...- - -...
Race4884 2018-02-24 15:35:40 8 galerna bul21 Wally
Race4883 2018-02-24 15:34:47 8 Maverick Albarone Schoko
Race4882 2018-02-24 15:33:27 8 Norman yeayea Dingo
Race4881 2018-02-24 15:32:02 8 Мираж Gabbiano Azzurro .leise
Race4880 2018-02-24 15:30:31 8 fair ...- - -... Penelope
Race4879 2018-02-24 15:29:21 8 777 ALICE Sgnaffe
Race4878 2018-02-24 15:26:41 8 Malvinas Albarone Vim
Race4877 2018-02-24 15:25:02 8 ITA266 fair Muf
Race4876 2018-02-24 15:23:47 8 Dannato Schoko ...- - -...
Race4875 2018-02-24 15:22:53 8 Latex PISKAREV GALOPIN SB3324RUS baton
Race4874 2018-02-24 15:20:44 8 Pulpito sandra D-one ITA 102
Race4873 2018-02-24 15:20:07 2 Penelope Fausto
Race4872 2018-02-24 15:19:07 8 fair ITA266 .leise
Race4871 2018-02-24 15:17:27 8 Latex baton PISKAREV GALOPIN SB3324RUS
Race4870 2018-02-24 15:16:45 8 7012 Invero jorda1
Race4869 2018-02-24 15:15:48 8 Dannato Jap470 Pulpito
Race4868 2018-02-24 15:14:41 8 Ar Vag 2 ...- - -... Mommotti
Race4867 2018-02-24 15:13:51 2 duty Penelope
Race4866 2018-02-24 15:12:22 8 HKG237 Lazy Piggy SIN 119(Daniel Kei) ITA266
Race4865 2018-02-24 15:11:06 8 777 baton PISKAREV GALOPIN SB3324RUS
Race4864 2018-02-24 15:09:22 8 Wally MANARA Jap470
Race4863 2018-02-24 15:08:30 8 Ar Vag 2 ...- - -... SuzieQ
Race4862 2018-02-24 15:06:15 8 HKG237 Lazy Piggy fair Sgnaffe
Race4861 2018-02-24 15:05:10 8 777 Figlio di puttana ciccispaziani 03:57:70
Race4860 2018-02-24 15:02:49 8 baton Ar PempO pacoto
Race4859 2018-02-24 15:01:41 8 energia ita 682 windhelper Mommotti
Race4858 2018-02-24 14:59:53 4 Sgnaffe suBmarine pacha
Race4857 2018-02-24 14:58:19 8 tribord 06 PISKAREV GALOPIN SB3324RUS Kona two
Race4856 2018-02-24 14:57:06 2 ITA266 777
Race4855 2018-02-24 14:55:33 8 Distraction Mommotti fair
Race4854 2018-02-24 14:54:09 6 caneco TRICK pacha
Race4853 2018-02-24 14:52:29 4 .leise ciccispaziani 03:57:70 PISKAREV GALOPIN SB3324RUS
Race4852 2018-02-24 14:51:08 8 Lago26-Mike Kona two Sgnaffe
Race4851 2018-02-24 14:48:37 8 fair billo baccani Sadalsuck
Race4850 2018-02-24 14:47:04 8 Stella dell'Est chokotoff achi49er
Race4849 2018-02-24 14:45:42 8 ciccispaziani 03:57:70 Paolo PISKAREV GALOPIN SB3324RUS
Race4848 2018-02-24 14:44:46 8 TRICK UpYers UKRAINE Запорожье
Race4847 2018-02-24 14:42:43 8 fair billo baccani ARMORICA
Race4846 2018-02-24 14:41:06 8 Albert ...- - -... Stella dell'Est
Race4845 2018-02-24 14:39:17 8 Latex Paolo Pulpito
Race4844 2018-02-24 14:38:05 8 poseidon ITA266 UpYers
Race4843 2018-02-24 14:37:07 8 fair ciccispaziani 03:57:70 billo baccani
Race4842 2018-02-24 14:35:51 8 Sadalsuck ITA 1848 ARMORICA
Race4841 2018-02-24 14:33:52 8 blizzard ...- - -... STEX
Race4840 2018-02-24 14:32:27 8 Mommotti Cortobalu3 Vim
Race4839 2018-02-24 14:31:23 8 Distraction domingofotografo UKRAINE Запорожье
Race4838 2018-02-24 14:30:14 8 Akula yeayea ciccispaziani 03:57:70
Race4837 2018-02-24 14:29:13 8 Sadalsuck ...- - -... fair
Race4836 2018-02-24 14:28:05 8 SonOfWhoreVistona blizzard STEX
Race4835 2018-02-24 14:27:00 8 Dannato NarieYachts Mommotti
Race4834 2018-02-24 14:25:57 3 domingofotografo Vim izziconquer
Race4833 2018-02-24 14:24:47 8 julepe Toscana Prodige_ITA
Race4832 2018-02-24 14:23:01 8 SoS chokotoff Snipe30396
Race4831 2018-02-24 14:21:57 8 blizzard SonOfWhoreVistona yeayea
Race4830 2018-02-24 14:19:51 8 energia ita 682 AVM Mommotti
Race4829 2018-02-24 14:18:28 8 Toscana Ar PempO u suck
Race4828 2018-02-24 14:17:34 7 MED Snipe30396 SMOKIFY
Race4827 2018-02-24 14:14:27 8 Akula POL220 SonOfWhoreVistona
Race4826 2018-02-24 14:13:47 8 Stella dell'Est old school AVM
Race4825 2018-02-24 14:12:46 8 u suck Dannato Ar PempO
Race4824 2018-02-24 14:11:58 2 SMOKIFY onboard
Race4823 2018-02-24 14:10:42 8 Bukkiii Snipe30396 MED
Race4822 2018-02-24 14:08:32 8 POL220 ...- - -... SonOfWhoreVistona
Race4821 2018-02-24 14:07:46 8 old school Valentina duke 06
Race4820 2018-02-24 14:06:23 8 Ar PempO u suck Akula
Race4819 2018-02-24 14:06:04 8 Hans Glide Dannato
Race4818 2018-02-24 14:04:21 4 jager Latex onboard
Race4817 2018-02-24 14:02:46 4 POL220 ...- - -... ANCONA
Race4816 2018-02-24 14:02:05 8 fair Valentina Can
Race4815 2018-02-24 14:00:48 8 Ar PempO ciccispaziani 03:57:70 old school
Race4814 2018-02-24 13:59:28 7 PRADA45 Glide duke 06
Race4813 2018-02-24 13:57:12 8 777 Akula Borneo
Race4812 2018-02-24 13:56:20 4 fair 007 VmG
Race4811 2018-02-24 13:54:24 8 Ar PempO old school E Daje
Race4810 2018-02-24 13:52:53 8 ANCONA PRADA45 Hans
Race4809 2018-02-24 13:51:26 8 Latex Glide P.Alessio
Race4808 2018-02-24 13:49:47 8 Ar PempO VmG Mommotti
Race4807 2018-02-24 13:48:53 3 E Daje AndyAut007 Mozart
Race4806 2018-02-24 13:45:46 4 007 Cortobalu3 ANCONA
Race4805 2018-02-24 13:44:15 8 Dannato Glide P.Alessio
Race4804 2018-02-24 13:42:24 8 777 UKRAINE Запорожье Mommotti
Race4803 2018-02-24 13:41:13 4 007 Cortobalu3 B-one
Race4802 2018-02-24 13:38:43 8 Dannato P.Alessio Stugots
Race4801 2018-02-24 13:33:25 8 777 Ar PempO baton
Race4800 2018-02-24 13:32:31 8 LOU VIRUS SHARDANA SRD fair
Race4799 2018-02-24 13:31:11 8 B_dog Siesta Y.C. Tempio Pausania
Race4797 2018-02-24 13:27:25 8 Nik Bang Ganzuria
Race4796 2018-02-24 13:25:13 8 fair Зюзя Glide
Race4795 2018-02-24 13:23:23 7 Y.C. Tempio Pausania B_dog POL 77
Race4794 2018-02-24 13:22:12 8 MED Mike Luna Gialla
Race4793 2018-02-24 13:20:53 8 Ganzuria Nik Clerico
Race4792 2018-02-24 13:19:54 8 Ar PempO Зюзя Akula